Home   Weather   Sangerhausen   Past weeks

Flag for Germany Past Weather in Sangerhausen, Saxony-Anhalt, Germany — Yesterday and Last 2 Weeks

Now
45 °F

Partly sunny.


Feels Like: 38 °F
Forecast: 37 / 45 °F
Wind: 13 mph from West

Location: Erfurt-Bindersleben

Current Time: Dec 9, 2016 at 12:33:07 pm

Latest Report: Dec 9, 2016 at 11:50 am


Visibility: N/A

Pressure: 30.33 "Hg

Humidity: 87%

Dew Point: 41 °F

Location of SangerhausenLocation

Past Weather in Sangerhausen — Graph

°F

Sangerhausen Temperature Yesterday

Maximum temperature yesterday: 46 °F (at 12:50 pm)
Minimum temperature yesterday: 34 °F (at 12:20 am)
Average temperature yesterday: 37 °F

High & Low Weather Summary for the Past Weeks

 TemperatureHumidityPressure
High46 °F (Dec 8, 12:50 pm)100% (Nov 24, 11:20 am)30.54 "Hg (Nov 24, 11:20 am)
Low14 °F (Dec 5, 3:50 am)53% (Dec 8, 12:50 pm)29.98 "Hg (Nov 27, 12:50 am)
Average31 °F90%30.28 "Hg
* Reported Nov 24 11:20 am — Dec 9 11:20 am, Sangerhausen, Weather by CustomWeather, © 2016

Note: Actual official high and low records may vary slightly from our data, if they occured in-between our weather recording intervals... More about our weather records

Advertising

Sangerhausen Weather History for the Previous 24 Hours

Scroll right to see more
 ConditionsComfort  
Time TempWeatherWind HumidityBarometerVisibility
11:20 am
Fri, Dec 9
43 °FPartly sunny.9 mph93%30.33 "HgN/A
10:50 am43 °FPartly sunny.15 mph87%30.36 "HgN/A
10:20 am43 °FPartly sunny.14 mph87%30.36 "HgN/A
9:50 am43 °FBroken clouds.14 mph87%30.33 "HgN/A
9:20 am41 °FPartly sunny.15 mph93%30.33 "HgN/A
8:50 am41 °FPartly sunny.15 mph93%30.33 "HgN/A
8:20 am41 °FOvercast.15 mph93%30.33 "HgN/A
7:50 am41 °FOvercast.17 mph87%30.30 "HgN/A
7:20 am41 °FPassing clouds.16 mph87%30.30 "HgN/A
6:50 am39 °FPassing clouds.14 mph93%30.30 "HgN/A
6:20 am41 °FPassing clouds.15 mph87%30.30 "HgN/A
5:20 am39 °FPassing clouds.14 mph87%30.30 "HgN/A
4:50 am39 °FPassing clouds.13 mph81%30.33 "HgN/A
4:20 am39 °FPassing clouds.10 mph81%30.30 "HgN/A
3:50 am37 °FPassing clouds.7 mph87%30.30 "HgN/A
3:20 am37 °FPassing clouds.7 mph81%30.30 "HgN/A
2:50 am37 °FPartly cloudy.14 mph81%30.30 "HgN/A
2:20 am39 °FPassing clouds.15 mph75%30.30 "HgN/A
1:50 am37 °FPassing clouds.17 mph81%30.30 "HgN/A
1:20 am37 °FClear.17 mph75%30.30 "Hg10 mi
12:50 am36 °FClear.16 mph81%30.30 "Hg10 mi
12:20 am34 °FClear.12 mph87%30.30 "Hg10 mi
11:50 pm
Thu, Dec 8
36 °FPassing clouds.6 mph81%30.33 "HgN/A
11:20 pm37 °FClear.7 mph75%30.33 "Hg10 mi
10:50 pm39 °FClear.14 mph70%30.33 "Hg10 mi
10:20 pm39 °FPassing clouds.7 mph70%30.33 "HgN/A
9:50 pm37 °FClear.10 mph75%30.33 "Hg10 mi
9:20 pm37 °FClear.3 mph75%30.36 "Hg10 mi
8:50 pm37 °FClear.2 mph75%30.36 "Hg10 mi
8:20 pm37 °FClear.3 mph75%30.33 "Hg10 mi
7:50 pm37 °FPassing clouds.5 mph75%30.33 "HgN/A
7:20 pm36 °FClear.7 mph81%30.36 "Hg10 mi
6:50 pm36 °FPassing clouds.3 mph81%30.36 "HgN/A
6:20 pm36 °FPassing clouds.3 mph81%30.33 "HgN/A
5:50 pm36 °FClear.6 mph81%30.33 "Hg10 mi
5:20 pm36 °FClear.5 mph81%30.36 "Hg10 mi
4:50 pm34 °FClear.5 mph87%30.33 "Hg10 mi
4:20 pm37 °FPassing clouds.5 mph75%30.33 "HgN/A
3:50 pm37 °FSunny.6 mph75%30.33 "Hg10 mi
3:20 pm43 °FSunny.9 mph61%30.33 "Hg10 mi
2:50 pm43 °FSunny.15 mph66%30.33 "Hg10 mi
2:20 pm43 °FSunny.10 mph66%30.36 "Hg10 mi
1:50 pm45 °FSunny.14 mph61%30.36 "Hg10 mi
1:20 pm45 °FSunny.18 mph57%30.36 "Hg10 mi
12:50 pm46 °FPassing clouds.9 mph53%30.36 "HgN/A
12:20 pm43 °FSunny.14 mph66%30.36 "Hg10 mi
Weather by CustomWeather, © 2016

See weather overviewHow to use our weather pages